Flag for Brazil Weather past 2 weeks in São Paulo, São Paulo, Brazil

Now
68 °F

Broken clouds.


Feels Like: 68 °F
Forecast: 68 / 79 °F
Wind: 6 mph from Northeast

Location: Sao Paulo Airport

Current Time: Mar 30, 2015 at 8:10:38 AM

Latest Report: Mar 30, 2015 at 7:00 AM


Visibility: N/A

Pressure: 30.04 "Hg

Humidity: 88%

Dew point: 64 °F

Location of São PauloLocation

Historic Weather in São Paulo — Graph

°F

São Paulo temperature yesterday

Maximum temperature yesterday: 77 °F (at 1:00 PM)
Minimum temperature yesterday: 66 °F (at 6:00 PM)
Average temperature yesterday: 70 °F

Past Weeks' High & Low Weather Summary

 TemperatureHumidityPressure
High84 °F (Mar 16, 2:00 PM)94% (Mar 19, 5:00 PM)30.24 "Hg (Mar 19, 5:00 PM)
Low61 °F (Mar 25, 6:00 AM)27% (Mar 20, 4:00 PM)29.89 "Hg (Mar 21, 3:00 PM)
Average70 °F76%30.09 "Hg
* Reported Mar 15 7:00 AM — Mar 30 7:00 AM, São Paulo, Weather by CustomWeather, © 2015

Note: Actual official high and low records may vary slightly from our data, if they occured in-between our weather recording intervals... More about our weather records

Advertising

São Paulo weather history for previous 24 hours

 ConditionsComfort  
Time TempWeatherWind HumidityBarometerVisibility
7:00 AM
Mon, Mar 30
68 °FBroken clouds.6 mph88%30.04 "HgN/A
6:00 AM68 °FMore clouds than sun.6 mph88%30.01 "HgN/A
5:00 AM68 °FOvercast.5 mph88%29.98 "HgN/A
4:00 AM66 °FPartly cloudy.6 mph94%29.98 "HgN/A
3:00 AM68 °FMostly cloudy.3 mph88%30.01 "HgN/A
2:00 AM68 °FLow clouds.5 mph88%30.04 "HgN/A
1:00 AM68 °FLow clouds.7 mph88%30.04 "Hg4 mi
12:00 AM66 °FLight rain. Low clouds.5 mph94%30.09 "Hg3 mi
11:00 PM
Sun, Mar 29
66 °FFog.6 mph94%30.09 "Hg3 mi
10:00 PM66 °FFog.7 mph94%30.09 "Hg2 mi
9:00 PM66 °FFog.8 mph94%30.09 "Hg3 mi
8:00 PM68 °FMostly cloudy.7 mph88%30.07 "HgN/A
7:00 PM66 °FMostly cloudy.9 mph88%30.07 "HgN/A
6:00 PM66 °FLow clouds.13 mph94%30.07 "HgN/A
5:00 PM70 °FMore clouds than sun.10 mph88%30.04 "HgN/A
4:00 PM70 °FLight rain. Fog.10 mph88%30.04 "Hg3 mi
3:00 PM72 °FLight rain. Broken clouds.13 mph83%30.04 "Hg5 mi
2:00 PM77 °FPartly sunny.7 mph69%30.07 "HgN/A
1:00 PM77 °FPartly sunny.3 mph69%30.07 "Hg5 mi
12:00 PM75 °FPartly sunny.7 mph74%30.09 "Hg6 mi
11:00 AM75 °FBroken clouds.5 mph74%30.12 "Hg4 mi
10:00 AM72 °FLight rain. Fog.2 mph78%30.12 "Hg3 mi
9:00 AM72 °FPartly sunny.2 mph73%30.12 "Hg4 mi
8:00 AM70 °FClear.3 mph78%30.12 "Hg5 mi
Weather by CustomWeather, © 2015

See weather overviewHow to use our weather pages